Weather History for Munising, MI

Change the Weather History Date:

Friday, July 5, 2013

  Actual Average (KISQ) Record (KISQ)
Temperature  
Mean Temperature 76 °F -  
Max Temperature 88 °F 71 °F 85 °F (1955)
Min Temperature 64 °F 51 °F 35 °F (1965)
Cooling Degree Days 10    
Growing Degree Days 26 (Base 50)    
Moisture  
Dew Point 59 °F    
Average Humidity 59    
Maximum Humidity 81    
Minimum Humidity 35    
Precipitation  
Precipitation 0.00 in - - ()
Sea Level Pressure  
Sea Level Pressure 29.95 in    
Wind  
Wind Speed 9 mph (SSW)    
Max Wind Speed 16 mph    
Max Gust Speed 29 mph    
Averages and records for this station are not official NWS values.
T = Trace of Precipitation, MM = Missing Value Source: NWS Daily Summary

Daily Weather History Graph

Daily Weather History Graph

Search for Another Location

Airport:

Trip Planner

Search our weather history database for the weather conditions in past years. The results will help you decide how hot, cold, wet, or windy it might be!

Date:

Astronomy

Jul. 05, 2013 Rise Set
Actual Time 6:00 AM EDT 9:41 PM EDT
Civil Twilight 5:22 AM EDT 10:19 PM EDT
Nautical Twilight 4:30 AM EDT 11:11 PM EDT
Astronomical Twilight 3:19 AM EDT 12:21 AM EDT
Moon 4:03 AM EDT (7/5) 7:32 PM EDT (7/5)
Length of Visible Light 16h 57m
Length of Day
15h 40m
Waning Crescent, 6% of the Moon is Illuminated
Jul 5
Waning Crescent
Jul 8
New
Jul 15
First Quarter
Jul 22
Full
Jul 29
Last Quarter

Hourly Weather History & Observations

Time (EDT) Temp. Heat Index Dew Point Humidity Pressure Visibility Wind Dir Wind Speed Gust Speed Precip Events Conditions
12:56 AM 68.0 °F - 59.0 °F 73% 29.97 in - SSW 8.1 mph - N/A   Unknown
1:56 AM 66.0 °F - 59.0 °F 78% 29.98 in - SSW 8.1 mph - N/A   Unknown
2:56 AM 66.0 °F - 59.0 °F 78% 29.97 in - SSW 9.2 mph - N/A   Unknown
3:56 AM 66.0 °F - 60.1 °F 81% 29.98 in - SSW 6.9 mph - N/A   Unknown
4:56 AM 66.0 °F - 60.1 °F 81% 29.96 in - SSW 8.1 mph - N/A   Unknown
5:56 AM 64.9 °F - 59.0 °F 81% 29.97 in - SSW 9.2 mph - N/A   Unknown
6:56 AM 66.0 °F - 60.1 °F 81% 29.98 in - SSW 10.4 mph - N/A   Unknown
7:56 AM 69.1 °F - 60.1 °F 73% 29.98 in - SW 9.2 mph - N/A   Unknown
8:56 AM 72.0 °F - 60.1 °F 66% 29.99 in - SSW 9.2 mph - N/A   Unknown
9:56 AM 77.0 °F - 61.0 °F 58% 29.99 in - SSW 8.1 mph - N/A   Unknown
10:56 AM 81.0 °F 81.6 °F 60.1 °F 49% 29.98 in - Variable 5.8 mph - N/A   Unknown
11:56 AM 84.0 °F 84.4 °F 61.0 °F 46% 29.97 in - SSW 11.5 mph - N/A   Unknown
12:56 PM 86.0 °F 85.4 °F 59.0 °F 40% 29.96 in - SSW 10.4 mph 18.4 mph N/A   Unknown
1:56 PM 87.1 °F 85.9 °F 57.0 °F 36% 29.95 in - SSW 9.2 mph 17.3 mph N/A   Unknown
2:56 PM 87.1 °F 86.1 °F 57.9 °F 37% 29.94 in - SW 8.1 mph 23.0 mph N/A   Unknown
3:56 PM 86.0 °F 85.0 °F 57.9 °F 38% 29.93 in - South 12.7 mph 24.2 mph N/A   Unknown
4:56 PM 86.0 °F 84.5 °F 55.0 °F 35% 29.93 in - South 15.0 mph 24.2 mph N/A   Unknown
5:56 PM 84.0 °F 83.3 °F 57.0 °F 40% 29.92 in - SSW 16.1 mph 28.8 mph N/A   Unknown
6:56 PM 82.9 °F 82.8 °F 59.0 °F 44% 29.91 in - South 15.0 mph 23.0 mph N/A   Unknown
7:56 PM 81.0 °F 81.6 °F 60.1 °F 49% 29.91 in - South 10.4 mph 18.4 mph N/A   Unknown
8:56 PM 78.1 °F - 61.0 °F 56% 29.92 in - South 10.4 mph - N/A   Unknown
9:56 PM 75.0 °F - 60.1 °F 60% 29.93 in - SSW 8.1 mph - N/A   Unknown
10:56 PM 72.0 °F - 60.1 °F 66% 29.93 in - SSW 4.6 mph - N/A   Unknown
11:56 PM 71.1 °F - 59.0 °F 66% 29.92 in - SSW 6.9 mph - N/A   Unknown